www.pogodaiklimat.ru

Погода и климат >> Архив погоды >> Россия >> Магаданская область >> Омсукчан


ПОГОДА в Омсукчане

  • Прогноз погоды в Омсукчане
  • Монитор погоды в Омсукчане

АРХИВ ПОГОДЫ в Омсукчане

Время (UTC), дата Ветер
(напр.,м/с)
 
Видим.   Явления Облачность Т
(С)
Тd
(С)
f
(%)
Тe
(С)
Тes
(С)
Комфортность P
(гПа)
Po
(гПа)
Тmin
(С)
Tmax
(С)
R
(мм)
R24
(мм)
S
(см)
12 13.05 СВ 3 50 км 10/10 930 м
[Cb cap]
+0.5 -3.9 72 -4 -4 1012.1 951.3
15 13.05 СВ 3 50 км 9/9 870 м
[Cb cap]
-0.9 -4.4 77 -6 -6 1012.5 951.3
18 13.05 В 3 50 км слаб. ливневой снег 10/10 840 м
[Cb cap]
-2.5 -5.7 79 -8 -8 1013.6 952.0
21 13.05 СВ 3 50 км {ливн. осадки} 10/10 800 м
[Cb cap]
-4.0 -8.1 73 -9 -9 1015.5 953.4 -4.2 0.2
00 14.05 СВ 4 50 км слаб. ливневой снег 9/9 600 м
[Cb cap]
-1.5 -8.6 58 -7 -6 1015.1 953.6
03 14.05 СВ 4-10
{11}
50 км {ливн. осадки} 9/5 600 м
[Cb cap Ci fib]
+2.7 -9.7 40 -1 +2 1013.4 952.9
06 14.05 С 6-10
{12}
50 км {ливн. осадки} 8/5 600 м
[Cb cap Ci fib]
+3.0 -10.1 38 -2 -1 1014.1 953.6
09 14.05 С 5
{12}
50 км 5/5 1000 м
[Cb cap]
+2.6 -11.3 35 -2 -2 1015.9 955.3 +4.1 0.0
12 14.05 СВ 2 50 км 3/3 1000 м
[Cb cap]
+0.2 -10.1 46 -3 -3 1017.7 956.4
15 14.05 С 3 50 км 1/1 1000 м
[Cb cap]
-0.8 -10.1 49 -5 -5 1018.9 957.3
18 14.05 В 1 50 км 1/1 1000 м
[Cb cap]
-2.7 -9.1 61 -4 -4 1020.8 958.7
21 14.05 С 4 50 км 3/3 1000 м
[Cb cap Ci fib]
+0.1 -9.8 47 -5 -2 1020.4 958.9 -2.9
00 15.05 С 3 50 км 6/3 1000 м
[Cb cap Ac trans]
+1.7 -9.8 42 -2 +3 1020.1 959.0
03 15.05 С 3 50 км 5/5 1000 м
[Cb cap]
+4.8 -9.8 34 +2 +7 1018.4 958.1
06 15.05 С 2 50 км 5/5 1000 м
[Cb cap]
+6.2 -10.5 29 +5 +7 1017.8 957.8
09 15.05 С 1 50 км 4/4 1000 м
[Sc]
+5.7 -10.3 31 +6 +6 1018.3 958.1 +6.5
12 15.05 ЮЗ 1 50 км ясно -2.3 -6.8 71 -4 -4 1020.9 958.9
15 15.05 ЮЗ 2 50 км ясно -4.4 -8.2 75 -8 -8 1021.8 959.3
18 15.05 ЮЗ 2 н/о н/о -5.7 -8.5 81 -10 -10 1022.6 959.7
21 15.05 Ю 2 50 км 3/0
[Ac trans]
+2.8 -6.6 50 0 +4 1020.4 959.5 -6.1
00 16.05 ЮЗ 3 50 км ясно +7.5 -8.1 32 +6 +15 опасность
простуды
1018.0 958.2
03 16.05 ЮЗ 3 50 км ясно +11.5 -6.9 27 +10 +20 опасность
простуды
1015.4 956.6
06 16.05 Ю 2 50 км ясно +13.1 -5.5 27 +13 +18 1013.6 955.2
09 16.05 З 4 50 км 4/0
[Ac trans]
+9.1 -3.9 40 +7 +7 1014.7 955.5 +13.1
12 16.05 З 5 50 км 4/0
[Ac trans]
+3.9 -4.1 56 -1 -1 1017.1 956.7
15 16.05 ЮЗ 3 50 км 1/0
[Ac trans]
+1.1 -4.5 66 -3 -3 1018.2 957.1
18 16.05 ЮЗ 3 50 км ясно -0.6 -5.0 72 -5 -5 1018.2 956.7
21 16.05 З 3 50 км 5/0
[Ci fib]
+4.1 -3.8 56 +1 +5 1015.8 955.5 -1.0
00 17.05 ЮЗ 3 50 км 3/0
[Ci fib]
+10.2 -1.5 44 +9 +17 1013.1 954.2
03 17.05 З 3 50 км 5/1 1000 м
[Cu hum Ci fib]
+15.4 0.0 35 +15 +23 1010.6 952.9
06 17.05 З 4 50 км 5/3 1000 м
[Cu hum Ci fib]
+16.8 +0.1 32 +16 +19 1008.7 951.4
09 17.05 ЮЗ 2 50 км 6/3 1000 м
[Sc Ci fib]
+15.6 +1.0 37 +16 +16 1008.9 951.4 +17.5
12 17.05 ЮЗ 2 50 км 8/8 1110 м
[Cb cap]
+8.4 +0.2 56 +7 +7 1010.9 951.8
15 17.05 ЮЗ 3 50 км 8/8 1050 м
[Cb cap]
+5.6 -0.0 67 +3 +3 1011.6 951.9
18 17.05 З 2 50 км 3/3 1000 м
[Sc]
+2.0 -0.9 81 -1 -1 1012.6 952.1
21 17.05 З 2 50 км 9/3 1000 м
[Sc Ac trans]
+9.1 +0.7 56 +8 +9 1010.9 952.0 +1.8
00 18.05 З 3 50 км 9/5 1000 м
[Cb cap Ac trans]
+12.9 -0.2 40 +12 +14 1010.0 951.9
03 18.05 З 3 50 км 8/4 1000 м
[Cb cap Ac trans]
+12.7 +1.4 46 +12 +15 1010.2 952.0
06 18.05 СВ 2 50 км в посл. час ливневой дождь 9/6 1000 м
[Cb cap Ac trans]
+7.8 +2.3 68 +6 +7 1012.2 953.0
09 18.05 СВ 4 50 км 10/8 1000 м
[Cb cap Ac und]
+3.8 +0.5 79 -1 -1 1013.9 953.7 +14.0 0.0
12 18.05 СВ 3 50 км 10/8 1110 м
[Cb cap Ac und]
+2.7 -0.2 81 -1 -1 1014.1 953.6
15 18.05 СВ 3 20 км слаб. ливневой дождь 10/8 1080 м
[Cb cap Ac und]
+1.5 +0.3 92 -3 -3 1013.5 952.8
18 18.05 СВ 2 20 км слаб. ливневой дождь 10/8 1050 м
[Cb cap Ac und]
+0.8 +0.7 99 -3 -3 1012.3 951.6
21 18.05 СВ 3 50 км {ливн. осадки} 10/8 930 м
[Cb cap Ac und]
+1.6 +1.2 97 -3 -3 1010.7 950.3 +0.8 1
00 19.05 СВ 3 50 км {ливн. осадки} 10/8 900 м
[Cb cap Ac und]
+2.5 +1.6 94 -2 -1 1008.5 948.4
03 19.05 СВ 4 50 км 10/8 930 м
[Cb cap Ac und]
+4.2 +2.2 87 -0 0 1004.7 945.1
06 19.05 СВ 4 20 км слаб. ливневой дождь 10/10 870 м
[Cb cap]
+3.6 +3.0 96 -1 -1 1001.6 942.1
09 19.05 СВ 1 10 км слаб. ливневой снег 10/10 600 м
[Cb cap]
+0.2 +0.2 100 -2 -2 1001.4 941.2 +4.8 6
12 19.05 СВ 3 4000 м слаб. ливневой снег 10/10 750 м
[Cb cap]
+0.1 +0.1 100 -5 -5 999.3 939.2
15 19.05 В 2 50 км в посл. час ливневой снег 10/10 750 м
[Cb cap]
+0.5 +0.5 100 -3 -3 997.9 937.9
18 19.05 В 2 50 км {ливн. осадки} 10/10 700 м
[Cb cap]
+1.0 +1.0 100 -3 -3 997.6 937.7
21 19.05 СВ 1 50 км слаб. ливневой дождь 10/10 800 м
[Cb cap]
+2.0 +1.3 95 0 0 999.4 939.6 +0.1 7 2
00 20.05 СВ 2 50 км {ливн. осадки} 10/10 800 м
[Cb cap]
+2.6 +1.7 94 -1 -1 1000.9 941.2
03 20.05 СВ 3 20 км слаб. ливневой дождь 10/10 750 м
[Cb cap]
+2.3 +1.8 96 -2 -2 1003.7 943.8
06 20.05 В 2 10 км слаб. ливневой снег 10/10 600 м
[Cb cap]
+1.3 +0.5 94 -2 -2 1007.2 946.9
09 20.05 З 1 50 км слаб. ливневой снег 10/10 840 м
[Cb cap]
+0.8 -1.0 88 -1 -1 1011.2 950.5 +2.9 3

 

Местоположение метеостанции Омсукчан (Магаданская область, Россия): широта 62.52 долгота 155.80 высота над уровнем моря 500 м.

В архиве по умолчанию представлена погода в Омсукчане за последнюю неделю. Архивные данные за месяц целиком и за предыдущие месяцы, начиная с января 2011 года, Вы можете получить, выбрав интересующий диапазон дат из раскрывающегося списка и нажав кнопку "Ввод!".


*Определитесь, кто Вы:
робот инопланетянин человек

Внимание! Время в таблицах - всемирное. Для получения местного времени необходимо прибавить поправку, которая равна 11 ч.

Смотрите также архив погоды в соседних городах и на ближайших метеорологических станциях:

Погода в Лабазной (Магаданская область, Россия) (162 км)
Погода в Балыгычане (Магаданская область, Россия) (177 км)
Погода в Сеймчане (Магаданская область, Россия) (179 км)
Погода в Среднекане (Магаданская область, Россия) (180 км)
Погода в Эвенске (Магаданская область, Россия) (188 км)
Погода на Шелихова (Магаданская область, Россия) (200 км)
Погода в Талой (Магаданская область, Россия) (240 км)
Погода в Коркодоне (Магаданская область, Россия) (265 км)
Погода в Совхозе Эльген (Магаданская область, Россия) (267 км)
Погода в Усть-Бохапче (Магаданская область, Россия) (273 км)

Пояснения к столбцам:

Ветер - указаны скорость ветра в м/с - средняя за 10 мин, порывы в срок и между сроками (в фигурных скобках) и направление, откуда дует ветер: С - северный, СВ - северо-восточный, В - восточный, ЮВ - юго-восточный, Ю - южный, ЮЗ - юго-западный, З - западный, СЗ - северо-западный.
Видимость - горизонтальная дальность видимости в метрах или километрах. При видимости от 1 до 10 км при отсутствии осадков обычно наблюдается дымка, при ухудшении видимости до 1 км и менее - туман. В сухую погоду видимость может ухудшаться дымом, пылью или мглою.
Явления - указаны атмосферные явления, наблюдавшиеся в срок или в последний час перед сроком; фигурными скобками обозначены явления, наблюдавшиеся между сроками (за 1-3 часа до срока); квадратными скобками обозначены град или гололедные отложения с указанием их диаметра в мм.
Облачность - указаны через наклонную черту общая и нижняя облачность в баллах и высота нижней границы облаков в метрах; квадратными скобками обозначены формы облаков: Ci - перистые, Cs - перисто-слоистые, Cc - перисто-кучевые, Ac - высококучевые, As - высокослоистые, Sc - слоисто-кучевые, Ns - слоисто-дождевые, Cu - кучевые, Cb - кучево-дождевые. Подробнее классификацию облаков см. в Атласе облаков (PDF).
T - Температура воздуха - температура, измеренная на высоте 2 м над землей.
Td - Температура точки росы - температура, при понижении до которой содержащийся в воздухе водяной пар достигнет насыщения.
f - Относительная влажность воздуха - влажноcть воздуха, измеренная на высоте 2 м над землей.
Te - Эффективная температура - температура, которую ощущает одетый по сезону человек в тени. Характеристика душности погоды. При расчете учитывается влияние влажности воздуха и скорости ветра на теплоощущения человека.
Tes - Эффективная температура на солнце - температура, которую ощущает человек, с поправкой на солнечный нагрев. Характеристика знойности погоды. Зависит от высоты солнца над горизонтом, облачности и скорости ветра. Ночью, в пасмурную погоду, а также при ветре 12 м/с и более поправка равна нулю.
P - Атмосферное давление - приведенное к уровню моря атмосферное давление.
Po - Атмосферное давление - измеренное на уровне метеостанции атмосферное давление.
Tmin - Минимальная температура - минимум температуры воздуха на высоте 2 м над землей.
Tmax - Максимальная температура - максимум температуры воздуха на высоте 2 м над землей.
R - Количество осадков - Количество выпавших осадков за период времени, мм. При наведении курсора мыши на число - период времени, за который выпало указанное количество осадков.
R24 - Количество осадков - Количество выпавших осадков за 24 часа, мм.
S - Снежный покров - Высота снежного покрова, см. При наведении курсора мыши на число - состояние снежного покрова и степень покрытия местности в баллах.